Weather in Yelizavetinka

Russia / Orenburg Oblast     51°45′58″N   59°44′30″E
temp.,
°C
wind,
m/s
gust,
m/s
humid.,
%
clouds,
%
prec.,
mm/h
press.,
hPa
HPBL,
m
26 february, fri
fri2623:00−27ssw44960 0.0 103442
02:00−29sw45930 0.0 103356
05:00−29sw44940 0.0 103342
08:00−28ssw349252 0.0 103159
11:00−23s468876 0.0 1031205
14:00−20s468987 0.0 1030266
17:00−20sse369681 0.0 1029198
20:00−23sse479992 0.0 1029117
27 february, sat
sat2723:00−25sse479973 0.0 1028112
02:00−23se589864 0.1 1025168
05:00−20se5109775 0.1 1023241
08:00−17sse81494100 0.1 1018360
11:00−11sse91594100 0.9 1015617
14:00−9s101594100 2.6 1011732
17:00−6s81393100 3.8 1009693
20:00−5s71495100 0.8 1006469
28 february, sun
sun2823:00−3ssw71295100 1.2 1005368
02:00−1sw4897100 0.3 1003324
05:00−1sw3798100 1.0 1003272
08:00−2sw61096100 0.6 1002378
11:00−3sw589497 0.7 1003281
14:00−1sw589396 0.1 1003666
17:00−1sw599598 0.6 1003622
20:00−6wsw71293100 0.8 1005415
1 march, mon
mon123:00−11wsw61194100 1.0 1008299
02:00−13w6119497 0.1 1010219
05:00−15w479798 0.1 1013108
08:00−16wsw349898 0.0 101442
11:00−13wsw349697 0.1 1016143
14:00−11wsw3394100 0.0 1016245
17:00−10sw3495100 0.1 1017243
20:00−12sw359689 0.1 1018125
2 march, tue
tue223:00−13wsw479690 0.3 1019154
02:00−15wsw479791 0.1 1018146
05:00−16wsw479895 0.1 1018136
08:00−19wsw589996 0.0 1018144
11:00−18wsw589577 0.1 1017238
14:00−16wsw699368 0.0 1017322
17:00−16wsw7119372 0.0 1016300
20:00−20wsw6129746 0.0 1016215